Location: Acheville
(50.3840°N, 2.8827°E)
Time: 12:54:55
(UTC+00:00)

Okean-O - Pass Details

Date: 24 October 2021
Orbit: 639 x 640 km, 98.2° (Epoch: 05 December)

Event Time Altitude Azimuth Distance (km) Brightness Sun altitude
Exits shadow 19:40:23 29° 230° (SW) 1,188 4.2 -29.4°
Maximum altitude 19:41:38 34° 263° (W) 1,060 4.1 -29.6°
Drops below altitude 10° 19:45:42 10° 329° (NNW) 2,044 5.8 -30.2°
Sets 19:48:06 0° 339° (NNW) 2,959 6.6 -30.5°
